x

Gravelly Shoals Light Mi (gslm4) Weather Station

11:40am - Thu 2nd Oct 2014 All times are CDT. -5 hours from GMT.

  • Wind
    13mph, 14mph gusts
  • Air Temp 62°f
  • Sea Pressure 1015.6mb
  • Gravelly Shoals Light Mi
  • Gravelly Shoals Light Mi

More Historic Weather Station data

Upgrade to MSW Pro to gain access to the past 30 days of data for over 8000 Wavebouys and Weather Stations around the globe.

Join Pro

Comparision Forecast

View Surf forecast
   
Thu 10/02 11:40am 13 14 mph 1015.6mb 62f
11:30am 13 14 mph 1015.9mb 62f
11:20am 13 14 mph 1015.9mb 61f
11:10am 13 17 mph 1015.9mb 61f
11:00am 15 16 mph 1015.9mb 61f
10:40am 14 16 mph 1016.3mb 61f
10:30am 13 17 mph 1016.6mb 61f
10:20am 15 17 mph 1016.6mb 61f
10:10am 16 20 mph 1016.3mb 61f
10:00am 16 18 mph 1016.3mb 61f
9:40am 16 18 mph 1016.6mb 60f
9:30am 15 20 mph 1016.6mb 60f
9:20am 17 20 mph 1016.6mb 60f
9:10am 18 21 mph 1016.6mb 60f
9:09am 18 22 mph 1016.6mb 60f
9:00am 20 22 mph 1016.6mb 60f
8:40am 16 20 mph 1016.9mb 60f
8:30am 16 21 mph 1017.3mb 59f
8:20am 18 21 mph 1017.3mb 59f
8:10am 18 22 mph 1016.9mb 59f
8:09am 17 28 mph 1016.9mb 59f
8:00am 18 25 mph 1016.9mb 59f
7:40am 24 28 mph 1016.9mb 58f
7:30am 23 28 mph 1016.9mb 59f
7:20am 20 22 mph 1016.9mb 59f
7:10am 17 21 mph 1016.9mb 59f
7:08am 18 24 mph 1016.9mb 58f
7:00am 16 20 mph 1017.3mb 58f
6:40am 21 23 mph 1016.9mb 58f
6:30am 22 24 mph 1016.9mb 58f
6:20am 21 24 mph 1017.3mb 57f
6:10am 21 23 mph 1017.3mb 57f
6:08am 21 24 mph 1017.3mb 57f
6:00am 22 23 mph 1017.3mb 57f
5:40am 21 24 mph 1016.3mb 57f
5:30am 18 22 mph 1016.3mb 57f
5:20am 21 23 mph 1016.6mb 56f
5:10am 18 21 mph 1016.6mb 56f
5:08am 17 24 mph 1016.6mb 56f
5:00am 18 20 mph 1016.9mb 57f
4:40am 18 22 mph 1016.6mb 57f
4:30am 20 24 mph 1016.9mb 57f
4:20am 21 24 mph 1016.9mb 58f
4:10am 21 23 mph 1016.9mb 58f
4:07am 17 20 mph 1017.3mb 58f
4:00am 17 20 mph 1017.3mb 59f
3:40am 15 18 mph 1017.3mb 59f
3:30am 16 18 mph 1016.9mb 59f
3:20am 16 17 mph 1016.9mb 59f
3:10am 14 16 mph 1017.3mb 59f
3:07am 14 17 mph 1017.3mb 59f
3:00am 14 16 mph 1017.3mb 59f
2:40am 14 17 mph 1017.6mb 60f
2:30am 15 17 mph 1017.6mb 60f
2:20am 15 17 mph 1017.3mb 60f
2:10am 15 18 mph 1017.3mb 60f
2:06am 15 21 mph 1017.3mb 60f
2:00am 16 20 mph 1017.3mb 60f
1:40am 18 21 mph 1017.3mb 60f
1:30am 17 21 mph 1017.6mb 60f
1:20am 17 20 mph 1017.6mb 60f
1:10am 17 20 mph 1017.6mb 60f
1:06am 17 21 mph 1017.9mb 60f
1:00am 17 20 mph 1017.6mb 60f
12:40am 16 20 mph 1017.6mb 60f
12:30am 17 18 mph 1017.6mb 60f
12:20am 17 20 mph 1017.6mb 60f
12:10am 15 17 mph 1017.6mb 60f
12:06am 15 20 mph 1017.6mb 60f
12:00am 14 16 mph 1017.9mb 60f
Wed 10/01 11:40pm 16 20 mph 1017.9mb 60f
11:30pm 16 18 mph 1017.9mb 60f
11:20pm 14 17 mph 1017.9mb 60f
11:10pm 16 18 mph 1017.6mb 60f
11:05pm 16 18 mph 1017.9mb 60f
11:00pm 15 17 mph 1017.9mb 60f
10:05pm 15 18 mph 1017.9mb 60f
9:40pm 16 17 mph 1017.9mb 60f
9:30pm 15 17 mph 1017.9mb 60f
9:20pm 15 17 mph 1017.9mb 60f
9:10pm 15 18 mph 1017.6mb 60f
9:04pm 16 18 mph 1017.3mb 60f
9:00pm 15 17 mph 1017.6mb 60f
8:40pm 15 17 mph 1017.6mb 61f
8:30pm 15 17 mph 1017.6mb 61f
8:20pm 15 16 mph 1017.6mb 61f
8:10pm 14 15 mph 1017.6mb 61f
8:04pm 13 16 mph 1017.3mb 61f
8:00pm 14 15 mph 1017.3mb 61f
7:40pm 14 15 mph 1017.3mb 61f
7:30pm 8 11 mph 1017.3mb 61f
7:20pm 8 9 mph 1017.3mb 60f
7:10pm 7 11 mph 1017.3mb 60f
7:04pm 9 10 mph 1016.9mb 59f
7:00pm 8 9 mph 1016.9mb 59f
6:30pm 5 6 mph 1017.3mb 60f
6:20pm 5
mph
1017.3mb 60f
6:10pm 5
mph
1017.3mb 60f
6:03pm 3 6 mph 1017.3mb 60f
6:00pm 3 5 mph 1017.3mb 60f
5:40pm 2 3 mph 1017.3mb 60f
5:30pm 3
mph
1017.3mb 60f
5:20pm 2 6 mph 1017.3mb 61f
5:10pm 5 6 mph 1017.3mb 61f
5:03pm 5 8 mph 1017.3mb 61f
5:00pm 5 7 mph 1017.3mb 61f
4:40pm 6 7 mph 1016.9mb 60f
4:30pm 7 8 mph 1016.9mb 60f
4:20pm 6 8 mph 1017.3mb 60f
4:10pm 7 8 mph 1017.3mb 60f
4:02pm 7 8 mph 1017.3mb 60f
4:00pm 7
mph
1017.3mb 60f
3:40pm 6 7 mph 1017.3mb 60f
3:30pm 6 7 mph 1017.6mb 59f
3:20pm 7 8 mph 1017.6mb 59f
3:10pm 6 7 mph 1017.9mb 59f
3:02pm 6 9 mph 1017.9mb 59f
3:00pm 6 7 mph 1017.9mb 59f
2:40pm 7 8 mph 1017.9mb 59f
2:30pm 8 9 mph 1017.9mb 59f
2:20pm 8
mph
1018.3mb 59f
2:10pm 8 9 mph 1018.3mb 59f
2:02pm 8 10 mph 1018.3mb 59f
2:00pm 7 8 mph 1018.3mb 59f
1:40pm 8 9 mph 1018.3mb 59f
1:30pm 9 10 mph 1018.6mb 58f
1:20pm 8
mph
1019mb 59f
1:10pm 6 7 mph 1019mb 58f
1:01pm 5 8 mph 1019mb 59f
1:00pm 5 6 mph 1019mb 59f
12:40pm 6 7 mph 1019mb 59f
12:30pm 7
mph
1019mb 58f
12:20pm 7 8 mph 1019mb 58f
12:10pm 7 8 mph 1019mb 58f
12:01pm 7 10 mph 1019mb 58f
12:00pm 7 8 mph 1019.3mb 58f
11:50am 7 9 mph 1019.3mb 58f
11:40am 9
mph
1019mb 58f
11:30am 8 9 mph 1019.3mb 58f
11:20am 8 10 mph 1019.3mb 58f
11:10am 9 11 mph 1019.3mb 58f
11:00am 10 11 mph 1019.3mb 57f
10:50am 9
mph
1019.3mb 57f
10:40am 9
mph
1019.3mb 57f
10:30am 9 10 mph 1019.6mb 57f
10:20am 10 11 mph 1019.3mb 57f
10:10am 10 11 mph 1019.3mb 57f
10:00am 10 13 mph 1019.3mb 57f
9:50am 11
mph
1019.3mb 57f
9:40am 11
mph
1019.3mb 57f
9:30am 11 13 mph 1019.3mb 57f
9:20am 11 14 mph 1019.3mb 57f
9:10am 13 14 mph 1019.3mb 57f
9:00am 14 15 mph 1019mb 57f
8:50am 13 15 mph 1019mb 57f
8:40am 14
mph
1018.6mb 57f
8:30am 13 14 mph 1018.6mb 57f
8:20am 10 13 mph 1018.6mb 57f
8:10am 11 13 mph 1018.6mb 57f
8:00am 10 13 mph 1018.6mb 57f
7:50am 11 14 mph 1018.6mb 56f
7:40am 11 14 mph 1018.3mb 56f
7:30am 13 14 mph 1018.6mb 56f
7:20am 11 16 mph 1018.3mb 56f
7:10am 13 14 mph 1018.3mb 56f
7:00am 11 15 mph 1018.3mb 56f
6:50am 14 16 mph 1017.9mb 56f
6:19am 14 16 mph 1017.9mb 56f
5:40am 13 14 mph 1017.9mb 56f
5:30am 11 14 mph 1017.6mb 56f
5:20am 14 17 mph 1017.6mb 56f
5:19am 15 17 mph 1017.9mb 56f
5:10am 14 15 mph 1017.6mb 56f
5:00am 13 16 mph 1017.6mb 56f
4:50am 13 15 mph 1017.6mb 56f
4:40am 11 14 mph 1017.6mb 56f
4:30am 13 14 mph 1017.9mb 56f
4:20am 13 14 mph 1017.9mb 56f
4:19am 13 14 mph 1017.9mb 57f
4:10am 11 13 mph 1017.6mb 57f
4:00am 9 10 mph 1017.9mb 57f
3:50am 8 9 mph 1017.9mb 57f
3:40am 8 9 mph 1017.9mb 57f
3:30am 9 11 mph 1017.9mb 57f
3:20am 10 11 mph 1017.9mb 57f
3:18am 10 13 mph 1017.9mb 57f
3:10am 9 10 mph 1017.9mb 57f
3:00am 9 11 mph 1017.9mb 57f
2:50am 9 11 mph 1017.9mb 57f
2:40am 10 11 mph 1017.9mb 57f
2:30am 9 13 mph 1017.9mb 57f
2:20am 11 13 mph 1017.9mb 57f
2:18am 11 14 mph 1018.3mb 57f
2:10am 10
mph
1018.3mb 57f
2:00am 9 14 mph 1018.3mb 57f
1:50am 11 14 mph 1018.3mb 57f
1:40am 11 13 mph 1018.3mb 57f
1:30am 11 13 mph 1018.3mb 57f
1:20am 11 14 mph 1017.9mb 57f
1:17am 13 20 mph 1017.9mb 56f
1:10am 14 16 mph 1017.9mb 56f
1:00am 14 16 mph 1017.9mb 56f
12:50am 15 17 mph 1017.9mb 56f
12:40am 16 20 mph 1017.9mb 56f
12:30am 17 18 mph 1017.9mb 56f
12:20am 16 17 mph 1017.9mb 56f
12:17am 16 23 mph 1017.9mb 55f
12:10am 16 18 mph 1017.6mb 55f
12:00am 16 20 mph 1017.9mb 55f
Tue 09/30 11:50pm 17 21 mph 1017.9mb 55f
11:40pm 20 23 mph 1017.9mb 55f
11:30pm 20 23 mph 1017.9mb 55f
11:20pm 18 24 mph 1017.6mb 55f
11:17pm 20 24 mph 1017.6mb 55f
11:10pm 20 23 mph 1017.6mb 54f
11:00pm 18 21 mph 1017.6mb 53f
10:50pm 18 22 mph 1017.9mb 53f
10:40pm 18 21 mph 1017.9mb 53f
10:30pm 17 22 mph 1017.9mb 53f
10:20pm 20 23 mph 1017.9mb 53f
10:16pm 18 23 mph 1017.9mb 53f
10:10pm 20 22 mph 1017.9mb 53f
10:00pm 16 21 mph 1017.9mb 52f
9:50pm 17 20 mph 1017.9mb 52f
9:40pm 18 21 mph 1017.9mb 52f
9:30pm 16 20 mph 1017.9mb 52f
9:20pm 15 18 mph 1017.9mb 52f
9:10pm 16 18 mph 1017.9mb 52f
9:00pm 17 20 mph 1018.3mb 52f
8:50pm 15 20 mph 1018.3mb 52f
8:40pm 15 18 mph 1018.3mb 52f
8:30pm 16 20 mph 1018.3mb 51f
8:20pm 16 18 mph 1017.9mb 52f
8:10pm 17 21 mph 1017.9mb 51f
8:00pm 18 21 mph 1017.6mb 51f
7:50pm 15 20 mph 1017.6mb 51f
7:40pm 17 21 mph 1017.9mb 51f
7:30pm 15 17 mph 1017.9mb 51f
7:20pm 15 17 mph 1017.9mb 51f
7:15pm 13 17 mph 1017.9mb 51f
7:10pm 14 16 mph 1017.6mb 50f
7:00pm 13 16 mph 1017.9mb 50f
6:50pm 14 15 mph 1017.9mb 50f
5:40pm 15 17 mph 1017.6mb 50f
5:30pm 14 16 mph 1017.6mb 50f
5:20pm 14 16 mph 1017.6mb 50f
5:14pm 14 17 mph 1017.6mb 50f
5:10pm 13 15 mph 1017.3mb 50f
5:00pm 14 15 mph 1017.3mb 50f
4:50pm 11 16 mph 1017.3mb 51f
4:40pm 13 17 mph 1017.3mb 51f
4:30pm 11 17 mph 1017.3mb 51f
4:20pm 11 16 mph 1016.9mb 51f
4:14pm 14 17 mph 1016.9mb 51f
4:10pm 15 17 mph 1016.9mb 51f
4:00pm 13 16 mph 1016.9mb 51f
3:50pm 13 16 mph 1016.9mb 51f
3:40pm 13 15 mph 1016.6mb 51f
3:30pm 11 14 mph 1016.6mb 51f
3:20pm 15 16 mph 1016.6mb 51f
3:13pm 13 18 mph 1016.6mb 51f
3:10pm 14 17 mph 1016.6mb 51f
3:00pm 14 16 mph 1016.6mb 51f
2:50pm 14 16 mph 1016.9mb 51f
2:13pm 16 21 mph 1016.9mb 51f
1:40pm 17 21 mph 1016.6mb 51f
1:30pm 17 18 mph 1016.6mb 50f
1:20pm 18 21 mph 1016.6mb 50f
1:12pm 16 21 mph 1016.6mb 50f
1:10pm 16 18 mph 1016.6mb 50f
1:00pm 18 21 mph 1016.6mb 50f
12:50pm 14 21 mph 1016.9mb 50f
12:40pm 14 17 mph 1016.9mb 50f
12:30pm 16 20 mph 1016.9mb 50f
12:20pm 15 20 mph 1016.9mb 50f
12:12pm 16 22 mph 1016.9mb 50f
12:10pm 16 21 mph 1016.9mb 50f
12:00pm 15 20 mph 1016.6mb 49f
11:50am 16 22 mph 1016.6mb 49f
11:40am 18 21 mph 1016.6mb 49f
11:30am 16 21 mph 1016.6mb 49f
11:20am 17 22 mph 1016.6mb 49f
11:12am 17 22 mph 1016.6mb 49f
11:10am 16 22 mph 1016.6mb 49f
11:00am 18 22 mph 1016.6mb 49f
10:50am 17 20 mph 1016.6mb 49f
10:40am 15 18 mph 1016.6mb 49f
10:30am 14 21 mph 1016.3mb 49f
10:20am 16 22 mph 1016.3mb 49f
10:11am 18 23 mph 1016.3mb 48f
10:10am 18 23 mph 1016.3mb 48f
10:00am 18 21 mph 1016.3mb 48f
9:50am 18 22 mph 1016.3mb 48f
9:40am 20 23 mph 1016.3mb 48f
9:30am 18 21 mph 1016.3mb 48f
9:20am 16 20 mph 1016.3mb 48f
9:11am 20 23 mph 1016.3mb 48f
9:10am 20 23 mph 1016.3mb 48f
9:00am 16 21 mph 1016.3mb 48f
8:50am 18 22 mph 1016.3mb 49f
8:40am 17 20 mph 1016.3mb 48f
8:30am 16 18 mph 1016.3mb 48f
8:20am 16 18 mph 1016.3mb 48f
8:10am 17 21 mph 1016.3mb 48f
8:00am 18 22 mph 1015.9mb 48f
7:50am 21 24 mph 1015.9mb 48f
7:40am 18 21 mph 1015.9mb 49f
7:30am 17 22 mph 1015.9mb 49f
7:20am 17 20 mph 1015.9mb 48f
7:10am 14 18 mph 1016.3mb 48f
7:00am 15 18 mph 1015.9mb 48f
6:50am 18 22 mph 1015.9mb 48f
6:40am 18 21 mph 1015.9mb 48f
6:30am 16 21 mph 1015.9mb 48f
6:20am 18 21 mph 1015.6mb 48f
6:10am 15 23 mph 1015.6mb 49f
6:00am 20 23 mph 1015.6mb 49f
5:50am 21 23 mph 1015.6mb 49f
5:40am 20 22 mph 1015.6mb 49f
5:30am 18 20 mph 1015.2mb 49f
5:20am 17 22 mph 1015.2mb 49f
5:10am 20 23 mph 1015.2mb 49f
5:09am 20 23 mph 1015.2mb 49f
5:00am 20 22 mph 1015.2mb 49f
4:50am 17 20 mph 1014.9mb 49f
4:40am 16 21 mph 1014.9mb 50f
4:30am 18 23 mph 1014.9mb 50f
4:20am 18 23 mph 1014.6mb 50f
4:10am 18 23 mph 1014.9mb 50f
4:09am 18 25 mph 1014.9mb 50f
4:00am 21 23 mph 1014.6mb 50f
3:50am 21 25 mph 1014.6mb 50f
3:40am 23 25 mph 1014.6mb 50f
3:30am 18 24 mph 1014.6mb 50f
3:20am 20 23 mph 1014.6mb 51f
3:10am 18 20 mph 1014.6mb 51f
3:08am 17 24 mph 1014.6mb 51f
3:00am 18 20 mph 1014.6mb 51f
2:50am 16 22 mph 1014.2mb 51f
2:40am 18 23 mph 1014.2mb 51f
2:30am 21 24 mph 1014.2mb 51f
2:20am 17 21 mph 1014.2mb 51f
2:10am 17 22 mph 1014.2mb 51f
2:08am 17 25 mph 1014.2mb 51f
2:00am 17 25 mph 1014.2mb 51f
1:50am 21 24 mph 1014.2mb 51f
1:40am 18 22 mph 1014.2mb 51f
1:30am 16 22 mph 1014.2mb 51f
1:20am 18 23 mph 1014.2mb 51f
1:10am 21 23 mph 1013.9mb 51f
1:08am 21 23 mph 1013.9mb 51f
1:00am 20 22 mph 1013.9mb 51f
12:50am 20 22 mph 1013.9mb 52f
12:40am 21 23 mph 1013.5mb 52f
12:30am 20 23 mph 1013.5mb 52f
12:20am 20 23 mph 1013.5mb 53f
12:10am 20 22 mph 1013.5mb 53f
12:07am 18 22 mph 1013.5mb 53f
12:00am 17 20 mph 1013.5mb 53f
Mon 09/29 11:50pm 17 21 mph 1013.5mb 53f
11:40pm 18 21 mph 1013.5mb 53f
11:30pm 18 21 mph 1013.9mb 53f
11:20pm 17 21 mph 1013.5mb 54f
11:10pm 18 22 mph 1013.5mb 54f
11:07pm 20 23 mph 1013.5mb 54f
11:00pm 18 22 mph 1013.5mb 54f
10:50pm 20 23 mph 1013.5mb 54f
10:06pm 18 23 mph 1013.9mb 55f
9:40pm 13 18 mph 1013.5mb 56f
9:30pm 16 18 mph 1013.5mb 56f
9:20pm 16 20 mph 1013.5mb 56f
9:10pm 16 18 mph 1013.5mb 57f
9:06pm 15 23 mph 1013.5mb 57f
9:00pm 17 22 mph 1013.5mb 57f
8:50pm 20 21 mph 1013.5mb 57f
8:40pm 18 23 mph 1013.5mb 58f
8:30pm 18 21 mph 1012.9mb 58f
8:20pm 20 22 mph 1012.9mb 59f
8:10pm 17 20 mph 1012.9mb 60f
8:06pm 11 15 mph 1012.9mb 61f
8:00pm 9 11 mph 1012.9mb 61f
7:50pm 8 9 mph 1013.2mb 61f
7:40pm 7 10 mph 1013.2mb 61f
7:30pm 9 11 mph 1013.2mb 61f
7:20pm 10 13 mph 1012.9mb 61f
7:10pm 11 14 mph 1012.9mb 61f
7:05pm 11 26 mph 1012.9mb 61f
7:00pm 14 16 mph 1012.9mb 61f
6:50pm 14 16 mph 1012.9mb 62f
6:30pm 20 23 mph 1012.5mb 64f
6:20pm 23 26 mph 1011.9mb 65f
6:10pm 14 23 mph 1011.9mb 65f
6:05pm 16 23 mph 1011.9mb 67f
6:00pm 20 22 mph 1011.9mb 69f
5:50pm 8 11 mph 1011.2mb 70f
5:40pm 5 7 mph 1011.2mb 70f
5:30pm 2 7 mph 1011.5mb 71f
5:20pm 3 6 mph 1011.5mb 70f
5:10pm 1 5 mph 1011.5mb 70f
5:04pm 2 7 mph 1011.9mb 70f
5:00pm 1 5 mph 1011.9mb 70f
4:50pm 2 5 mph 1011.9mb 70f
4:40pm 1 7 mph 1011.9mb 70f
4:30pm 2 6 mph 1011.9mb 70f
4:20pm 3 7 mph 1011.9mb 70f
4:10pm 5 7 mph 1011.9mb 71f
4:04pm 5 10 mph 1012.2mb 70f
4:00pm 5 8 mph 1012.2mb 70f
3:50pm 5 9 mph 1012.5mb 70f
3:40pm 7 10 mph 1012.5mb 69f
3:30pm 8 10 mph 1012.5mb 70f
3:20pm 6 8 mph 1012.5mb 70f
3:10pm 5 7 mph 1012.9mb 70f
3:04pm 5 8 mph 1012.9mb 69f
3:00pm 5 7 mph 1012.9mb 69f
2:50pm 3 6 mph 1012.9mb 69f
2:40pm 3 6 mph 1013.2mb 69f
2:30pm 5 7 mph 1013.2mb 69f
2:20pm 5 8 mph 1013.2mb 68f
2:10pm 2 8 mph 1013.5mb 68f
2:03pm 5 8 mph 1013.5mb 68f
2:00pm 6 8 mph 1013.5mb 68f
1:50pm 7 8 mph 1013.5mb 67f
1:40pm 6 8 mph 1013.9mb 67f
1:30pm 6 7 mph 1013.9mb 66f
1:20pm 6 8 mph 1014.2mb 66f
1:10pm 6 8 mph 1014.2mb 65f
1:03pm 5 10 mph 1014.6mb 65f
1:00pm 5 7 mph 1014.6mb 65f
12:50pm 2 5 mph 1014.9mb 65f
12:40pm 3 7 mph 1014.9mb 65f
12:30pm 6 8 mph 1014.9mb 64f
12:20pm 5 10 mph 1014.9mb 64f
12:10pm 7 9 mph 1014.9mb 64f
12:02pm 6 9 mph 1015.2mb 64f
12:00pm 5 7 mph 1015.2mb 64f
11:50am 1 3 mph 1015.6mb 63f
11:40am  -  7 mph 1015.6mb 63f
11:30am 5 9 mph 1015.6mb 63f
11:20am 5 8 mph 1015.6mb 63f
11:10am 2 6 mph 1015.9mb 63f
11:02am  -  8 mph 1015.9mb 63f
11:00am  -  5 mph 1015.9mb 63f
10:50am 2 5 mph 1015.9mb 63f
10:40am  -  5 mph 1015.9mb 63f
10:30am 2 3 mph 1016.3mb 63f
10:20am 2 6 mph 1016.3mb 62f
10:10am 6 8 mph 1016.3mb 62f
10:02am 3 9 mph 1016.3mb 62f
10:00am 5 8 mph 1016.6mb 62f
9:50am 8 9 mph 1016.6mb 62f
9:40am 7 8 mph 1016.6mb 62f
9:30am 7 8 mph 1016.9mb 62f
9:20am 7 8 mph 1016.9mb 62f
9:10am 2 5 mph 1016.6mb 62f
9:01am 5 7 mph 1016.6mb 61f
9:00am 5 6 mph 1016.6mb 61f
8:50am 5
mph
1016.9mb 60f
8:40am 3 5 mph 1016.6mb 61f
8:30am 5 7 mph 1016.9mb 62f
8:20am 6 7 mph 1016.9mb 62f
8:10am 6 7 mph 1016.9mb 63f
8:01am 5 10 mph 1016.9mb 63f
8:00am 5 7 mph 1016.9mb 63f
7:50am 8 10 mph 1016.6mb 63f
7:40am 9 10 mph 1016.9mb 63f
7:30am 9
mph
1016.9mb 63f
7:20am  -  2 mph 1016.9mb 63f
7:10am  -  2 mph 1016.9mb 64f
7:00am  -  3 mph 1016.6mb 63f
6:50am  -  2 mph 1016.6mb 62f
6:00am 3 6 mph 1016.6mb 62f
5:40am  -  mph 1016.9mb 62f
5:30am  -  2 mph 1016.9mb 62f
5:20am 1 6 mph 1016.9mb 62f
5:10am 5 6 mph 1016.9mb 62f
5:00am 5
mph
1016.9mb 62f
4:50am  -  2 mph 1016.9mb 62f
4:40am 2 5 mph 1017.3mb 62f
4:30am 3 5 mph 1016.9mb 62f
4:20am 3
mph
1017.3mb 62f
4:10am 3
mph
1017.3mb 62f
4:00am 3 5 mph 1016.9mb 62f
3:50am 3 5 mph 1016.9mb 62f
3:40am 5
mph
1016.9mb 62f
3:30am 5 6 mph 1017.3mb 62f
3:20am 5 9 mph 1017.3mb 62f
3:10am 6 7 mph 1017.3mb 63f
3:00am 7 9 mph 1017.3mb 63f
2:50am 8 9 mph 1017.3mb 63f
2:40am 8
mph
1017.3mb 63f
2:30am 7 9 mph 1017.3mb 63f
2:20am 8 9 mph 1017.3mb 63f
2:10am 8 9 mph 1017.3mb 63f
2:00am 8 9 mph 1017.6mb 62f
1:50am 8
mph
1017.6mb 63f
1:40am 7
mph
1017.6mb 63f
1:30am 6
mph
1017.6mb 63f
1:20am 3 5 mph 1017.6mb 64f
1:19am 3 6 mph 1017.6mb 64f
1:10am 3 5 mph 1017.6mb 64f
1:00am 5
mph
1017.6mb 64f
12:50am 3 5 mph 1017.6mb 64f
12:40am 3 6 mph 1017.6mb 64f
12:30am 5 6 mph 1017.6mb 64f
12:20am 6 7 mph 1017.6mb 65f
12:19am 6 8 mph 1017.6mb 64f
12:10am 3 5 mph 1017.6mb 64f
12:00am 3 8 mph 1017.9mb 64f
Sun 09/28 11:50pm 7 8 mph 1017.9mb 65f
11:40pm 6 7 mph 1017.9mb 65f
11:30pm 6 7 mph 1018.3mb 65f
11:20pm 5 6 mph 1018.3mb 65f
11:19pm 6 8 mph 1018.3mb 65f
11:10pm 6
mph
1018.3mb 65f
11:00pm  -  3 mph 1018.3mb 65f
10:50pm 2 3 mph 1018.6mb 65f
10:40pm 2 6 mph 1018.6mb 65f
10:30pm 6 8 mph 1018.6mb 65f
10:20pm 7 8 mph 1018.6mb 65f
10:18pm 7 8 mph 1018.6mb 66f
10:10pm 7 8 mph 1018.6mb 66f
10:00pm 7
mph
1018.6mb 67f
9:50pm 6 7 mph 1018.6mb 66f
9:40pm 6 7 mph 1018.6mb 66f
9:30pm 7 8 mph 1019mb 66f
9:20pm 7 8 mph 1019mb 66f
9:18pm 8
mph
1019mb 67f
9:10pm 7 8 mph 1019mb 67f
9:00pm 6
mph
1019mb 67f
8:50pm 6
mph
1019mb 66f
8:40pm 5 6 mph 1019mb 67f
8:30pm 6
mph
1019.3mb 68f
8:20pm 6
mph
1019.3mb 69f
8:17pm 6 7 mph 1019.3mb 69f
8:10pm 6
mph
1019.3mb 69f
8:00pm 3 6 mph 1019mb 69f
7:50pm 6 7 mph 1019.3mb 69f
7:40pm 6
mph
1019mb 69f
7:30pm 5
mph
1019.3mb 70f
7:20pm  -  1 mph 1019.3mb 69f
7:17pm  -  6 mph 1019mb 69f
7:10pm  -  1 mph 1019mb 70f
7:00pm  -  3 mph 1019mb 70f
6:50pm 3 5 mph 1019.3mb 70f
6:30pm 3 5 mph 1019.3mb 69f
6:20pm 5 6 mph 1019.3mb 69f
6:16pm 6 7 mph 1019.3mb 70f
6:10pm 5 6 mph 1019.3mb 70f
6:00pm 6 7 mph 1019.3mb 70f